CAPE
0 0 0 0 0 0 0 0 0 0 0 0 0 0 0 0 0 0 0 0 0 0 0 0 0 0 0 0 0 0 0 0
56 0 0 0 0 0 0 0 0 0 0 0 0 0 0 0 0 0 0 0 0 0 0 0 0 0 0 0 0 0 0 0
0 2 0 0 0 0 0 0 0 0 0 0 0 0 0 0 0 0 0 0 0 0 0 0 0 0 0 0 0 0 0 0
0 0 0 0 0 0 0 0 0 0 0 0 0 0 0 0 0 0 0 0 0 0 0 0 0 0 0 0 0 0 0 0
0 0 0 0 0 0 0 0 0 0 0 0 0 0 0 0 0 0 0 0 0 0 0 0 0 0 0 0 0 0 0 0
0 0 0 0 0 0 0 0 0 0 0 0 0 0 0 0 0 0 0 0 0 0 0 0 0 0 0 0 0 0 0 0
0 0 0 0 0 0 0 0 0 0 0 0 0 0 0 0 0 0 0 0 0 0 0 0 0 0 0 0 0 0 0 0
0 0 0 0 0 0 0 0 0 0 0 0 0 0 0 0 0 0 0 0 0 0 0 0 0 0 0 0 0 0 0 0
0 0 0 0 0 0 19 0 0 0 0 0 0 0 0 0 0 0 0 0 0 0 0 0 0 0 0 0 0 0 0 0
0 0 0 0 0 0 0 0 0 0 0 0 0 0 0 0 0 0 0 0 0 0 0 0 0 0 0 0 0 0 0 0
0 0 0 0 2 1 0 0 0 0 0 0 0 0 0 0 0 0 0 0 0 0 0 0 0 0 0 0 0 0 0 0
0 0 0 0 0 0 1 0 0 0 0 0 0 0 0 0 0 0 0 0 0 0 0 0 0 0 0 0 0 0 0 0
8 12 24 11 2 0 0 0 0 0 0 0 0 0 0 0 0 0 0 0 0 0 0 0 0 0 0 0 0 0 0 0
0 40 66 73 19 4 0 0 0 0 0 0 0 0 0 0 0 0 0 0 0 0 0 0 0 0 0 0 0 0 0 0
0 0 0 0 1 0 0 0 0 0 0 0 0 0 0 0 0 0 0 0 0 0 0 0 0 0 0 0 0 0 0 0
0 0 0 0 0 0 0 0 0 0 0 0 0 0 0 0 0 0 0 0 0 0 0 0 0 0 0 0 0 0 0 0
0 0 0 0 0 0 0 0 0 0 0 0 0 0 0 0 0 0 0 0 0 0 0 0 0 0 0 0 0 0 0 0
0 0 0 0 0 0 0 0 0 0 0 0 0 0 0 0 0 0 0 0 0 0 0 0 0 0 0 0 0 0 0 0
0 0 0 0 0 0 0 0 0 0 0 0 0 0 0 0 0 0 0 0 0 0 0 0 0 0 0 0 0 0 0 0
CIN
-327 -0 -0 -0 -0 -0 -0 -0 -0 -0 -0 -0 -0 -0 -0 -0 -0 -0 -0 -0 -0 -0 -0 -0 -0 -0 -0 -0 -0 -0 -0 -0
-529 -0 -0 -0 -0 -0 -0 -0 -0 -0 -0 -0 -0 -0 -0 -0 -0 -0 -0 -0 -0 -0 -0 -0 -0 -0 -0 -0 -0 -0 -0 -0
-192 -616 -0 -0 -0 -0 -0 -0 -0 -0 -0 -0 -0 -0 -0 -0 -0 -0 -0 -0 -0 -0 -0 -0 -0 -0 -0 -0 -0 -0 -0 -0
-0 -0 -0 -0 -0 -0 -0 -0 -0 -0 -0 -0 -0 -0 -0 -0 -0 -0 -0 -0 -0 -0 -0 -0 -0 -0 -0 -0 -0 -0 -0 -0
-0 -0 -0 -0 -0 -0 -0 -0 -0 -0 -0 -0 -0 -0 -0 -0 -0 -0 -0 -0 -0 -0 -0 -0 -0 -0 -0 -0 -0 -0 -0 -0
-0 -0 -0 -0 -0 -0 -0 -0 -0 -0 -0 -0 -0 -0 -0 -0 -0 -0 -0 -0 -0 -0 -0 -0 -0 -0 -0 -0 -0 -0 -0 -0
-0 -0 -0 -0 -0 -0 -0 -0 -0 -0 -0 -0 -0 -0 -0 -0 -0 -0 -0 -0 -0 -0 -0 -0 -0 -0 -0 -0 -0 -0 -0 -0
-0 -0 -0 -0 -0 -0 -0 -0 -0 -0 -0 -0 -0 -0 -0 -0 -0 -0 -0 -0 -0 -0 -0 -0 -0 -0 -0 -0 -0 -0 -0 -0
-0 -0 -0 -0 -0 -0 -26 -0 -0 -0 -0 -0 -0 -0 -0 -0 -0 -0 -0 -0 -0 -0 -0 -0 -0 -0 -0 -0 -0 -0 -0 -0
-0 -0 -0 -0 -0 -0 -0 -0 -0 -0 -0 -0 -0 -0 -0 -0 -0 -0 -0 -0 -0 -0 -0 -0 -0 -0 -0 -0 -0 -0 -0 -0
-0 -0 -0 -0 -116 -85 -0 -0 -0 -0 -0 -0 -0 -0 -0 -0 -0 -0 -0 -0 -0 -0 -0 -0 -0 -0 -0 -0 -0 -0 -0 -0
-35 -0 -0 -0 -0 -55 -193 -0 -0 -0 -0 -0 -0 -0 -0 -0 -0 -0 -0 -0 -0 -0 -0 -0 -0 -0 -0 -0 -0 -0 -0 -0
-89 -85 -144 -212 -204 -0 -0 -0 -0 -0 -0 -0 -0 -0 -0 -0 -0 -0 -0 -0 -0 -0 -0 -0 -0 -0 -0 -0 -0 -0 -0 -0
-0 -96 -129 -148 -207 -232 -0 -0 -0 -0 -0 -0 -0 -0 -0 -0 -0 -0 -0 -0 -0 -0 -0 -0 -0 -0 -0 -0 -0 -0 -0 -0
-0 -0 -0 -0 -62 -0 -0 -0 -0 -0 -0 -0 -0 -0 -0 -0 -0 -0 -0 -0 -0 -0 -0 -0 -0 -0 -0 -0 -0 -0 -0 -0
-0 -0 -0 -0 -0 -0 -0 -0 -0 -0 -0 -0 -0 -0 -0 -0 -0 -0 -0 -0 -0 -0 -0 -0 -0 -0 -0 -0 -0 -0 -0 -0
-0 -0 -0 -0 -0 -0 -0 -0 -0 -0 -0 -0 -0 -0 -0 -0 -0 -0 -0 -0 -0 -0 -0 -0 -0 -0 -0 -0 -0 -0 -0 -0
-0 -0 -0 -0 -0 -0 -0 -0 -0 -0 -0 -0 -0 -0 -0 -0 -0 -0 -0 -0 -0 -0 -0 -0 -0 -0 -0 -0 -0 -0 -0 -0
-0 -0 -0 -0 -0 -0 -0 -0 -0 -0 -0 -0 -0 -0 -0 -0 -0 -0 -0 -0 -0 -0 -0 -0 -0 -0 -0 -0 -0 -0 -0 -0
Wind_Speed
13 13 11 10 9 7 6 6 4 2 3 4 6 7 8 9 10 10 10 10 11 11 13 14 15 16 16 16 16 18 17 15
17 16 14 12 11 10 10 9 7 5 4 4 7 7 7 9 10 10 10 10 11 11 12 14 15 16 17 15 17 17 16 13
21 19 18 18 17 14 13 11 9 7 7 9 9 5 9 8 9 9 10 9 10 11 12 14 15 17 18 16 15 16 16 15
22 20 19 18 18 17 15 13 10 9 9 9 10 8 10 13 12 12 12 10 10 11 13 15 17 18 18 18 16 16 16 16
20 19 19 18 17 15 14 13 12 12 11 9 8 9 9 13 10 11 10 10 10 10 12 15 16 16 17 17 17 17 16 15
18 14 14 13 13 14 14 14 13 12 13 11 11 10 12 8 9 7 9 10 10 10 11 13 14 15 16 17 17 18 17 16
18 15 13 13 11 12 13 14 13 14 12 12 8 8 8 5 6 6 7 10 10 11 11 12 13 15 16 16 16 17 18 17
20 17 13 10 9 11 14 15 14 14 10 4 8 7 5 6 5 7 7 8 9 10 11 12 13 14 14 15 15 16 17 15
20 18 13 9 8 8 14 9 7 6 10 12 8 8 8 8 8 9 8 6 7 10 11 10 10 11 13 14 14 14 14 14
18 13 8 8 10 12 19 18 20 19 13 12 12 10 8 8 11 10 9 7 7 7 6 7 9 12 12 12 12 12 13 13
14 13 10 12 15 15 20 15 17 17 19 15 13 10 8 10 10 10 8 6 6 6 7 7 8 9 10 10 11 10 11 11
21 22 20 18 17 18 17 19 18 15 10 10 13 10 8 7 12 9 8 7 6 4 4 5 6 7 7 8 8 10 10 9
30 21 18 19 18 18 18 18 19 16 16 14 9 11 8 12 10 10 9 8 6 4 5 4 5 5 4 5 7 9 8 6
28 26 25 23 21 19 17 17 16 13 11 10 11 15 11 13 11 13 11 9 6 6 4 6 5 5 3 5 7 7 7 5
32 31 33 28 28 25 24 23 19 16 14 12 11 10 14 12 12 12 12 9 9 7 6 7 6 6 3 5 5 5 6 6
27 26 26 25 22 21 22 21 22 20 17 15 13 12 10 9 11 12 12 12 14 10 9 10 7 7 3 4 3 4 4 5
27 29 29 27 22 25 23 19 19 18 17 16 13 11 9 8 8 10 11 12 15 16 15 11 7 5 6 5 2 3 4 4
25 28 32 31 27 28 29 14 11 13 15 14 13 10 10 9 8 8 11 13 12 14 12 10 8 10 5 4 2 2 3 2
24 26 29 24 24 26 23 14 11 8 9 10 10 11 12 11 9 7 8 9 10 9 10 10 12 10 6 5 4 2 1 1
Wind_Direction
273 261 255 241 228 232 225 231 242 265 294 292 290 298 313 321 324 325 327 327 328 329 329 331 334 332 335 339 338 336 334 335
278 264 256 251 233 227 236 233 238 242 270 287 295 293 306 316 322 325 326 326 328 329 330 331 333 331 330 332 333 333 334 339
283 266 253 240 231 224 215 222 220 237 265 289 294 298 309 320 328 329 330 329 330 331 329 331 332 330 329 329 330 330 331 324
287 271 254 246 237 230 224 227 232 256 269 285 292 313 308 308 315 316 315 324 327 327 328 327 327 327 327 326 325 323 322 325
289 271 263 252 245 238 231 233 246 267 264 273 267 286 296 300 310 312 316 318 323 329 330 329 329 330 330 330 329 325 322 316
316 302 287 276 257 243 238 244 256 256 260 262 271 281 299 313 310 316 316 320 327 332 333 334 335 337 335 334 333 330 325 320
327 318 305 291 273 245 243 251 256 262 255 270 272 272 289 305 305 308 317 318 325 328 334 336 338 337 337 341 341 338 332 329
324 314 303 293 268 263 268 270 280 280 284 269 286 280 279 292 286 297 303 316 322 321 328 331 333 340 343 345 342 341 335 341
329 316 307 289 267 274 289 294 296 307 304 295 284 268 279 288 287 289 295 312 317 319 326 338 346 348 345 345 346 345 350 346
337 336 331 305 286 276 284 305 306 302 298 300 289 275 269 273 284 284 294 306 318 327 341 346 339 334 342 350 351 350 353 349
329 315 304 290 284 285 290 295 295 292 292 292 285 274 260 276 272 276 283 293 311 323 333 335 339 344 353 359 358 3 345 345
310 301 297 295 291 293 292 295 297 291 283 281 278 267 266 266 272 271 268 275 292 317 327 327 336 350 2 5 4 348 342 349
305 301 295 290 287 289 285 290 291 290 286 285 259 260 266 269 267 263 263 261 272 291 297 307 327 343 12 9 354 338 344 349
305 305 302 294 288 286 286 285 283 285 281 281 278 275 265 270 269 267 263 262 258 280 267 289 305 325 351 345 335 336 340 341
301 302 299 300 295 291 289 285 280 277 273 262 270 264 270 261 257 259 262 256 261 265 265 280 294 308 333 326 328 338 338 327
315 319 319 318 311 298 290 284 283 274 267 264 264 274 264 267 260 254 257 267 264 274 267 275 286 294 294 293 323 332 331 326
319 320 320 319 317 311 303 282 273 267 263 263 266 265 259 251 240 251 259 261 269 272 270 272 275 282 280 271 286 309 319 314
322 324 317 320 320 316 304 284 265 263 259 256 256 250 239 234 241 242 258 264 259 268 267 265 273 279 257 248 247 295 302 299
327 325 325 333 334 329 316 309 292 263 247 246 252 251 253 251 247 234 252 255 256 253 259 265 276 277 242 227 249 268 244 290